Prairie Du Chien, WI

8:20 AM CST on December 12, 2019 (GMT -0600)
Prairie Du Chien Municipal

Weather History for KPDC - November, 2019

Change the Weather History Date:

Wednesday, November 13, 2019

  Actual Average Record
Temperature  
Mean Temperature 20 °F -  
Max Temperature 25 °F 46 °F 75 °F (1999)
Min Temperature 15 °F 27 °F 2 °F (1986)
Degree Days  
Heating Degree Days 45    
Moisture  
Dew Point 15 °F    
Average Humidity 77    
Maximum Humidity 94    
Minimum Humidity 55    
Precipitation  
Precipitation 0.00 in - - ()
Sea Level Pressure  
Sea Level Pressure 30.05 in    
Wind  
Wind Speed 5 mph (SSE)    
Max Wind Speed 10 mph    
Max Gust Speed 16 mph    
Visibility 6 miles    
Events Snow    
Averages and records for this station are not official NWS values.
T = Trace of Precipitation, MM = Missing Value Source: NWS Daily Summary

Daily Weather History Graph

Daily Weather History Graph

Search for Another Location

Airport or City:

Astronomy

Nov. 13, 2019 Rise Set
Actual Time 6:54 AM CST 4:42 PM CST
Civil Twilight 6:23 AM CST 5:13 PM CST
Nautical Twilight 5:49 AM CST 5:47 PM CST
Astronomical Twilight 5:16 AM CST 6:20 PM CST
Moon 5:45 PM CST (11/13) 7:48 AM CST (11/13)
Length of Visible Light 10h 49m
Length of Day
9h 48m
Full, 99% of the Moon is Illuminated
Nov 13
Full
Nov 19
Last Quarter
Nov 26
New
Dec 4
First Quarter
Dec 11
Full

Hourly Weather History & Observations

Time (CST) Temp. Windchill Dew Point Humidity Pressure Visibility Wind Dir Wind Speed Gust Speed Precip Events Conditions
12:35 AM 16.2 °F 6.5 °F 2.5 °F 55% 30.23 in 10.0 mi SSE 6.9 mph - N/A   Scattered Clouds
12:55 AM 15.8 °F 3.4 °F 2.8 °F 57% 30.21 in 10.0 mi SE 10.4 mph - N/A   Scattered Clouds
1:15 AM 15.8 °F 5.1 °F 2.8 °F 57% 30.20 in 10.0 mi SE 8.1 mph 16.1 mph N/A   Clear
1:55 AM 15.8 °F 6.1 °F 4.1 °F 60% 30.17 in 10.0 mi SE 6.9 mph - N/A   Clear
2:35 AM 16.2 °F 6.5 °F 4.8 °F 61% 30.14 in 10.0 mi SE 6.9 mph - N/A   Clear
2:55 AM 16.5 °F 6.0 °F 5.5 °F 62% 30.12 in 10.0 mi SE 8.1 mph - N/A   Scattered Clouds
3:15 AM 16.7 °F 8.3 °F 5.7 °F 62% 30.12 in 10.0 mi SE 5.8 mph - N/A   Scattered Clouds
3:55 AM 17.6 °F 7.3 °F 6.4 °F 62% 30.09 in 10.0 mi SE 8.1 mph - N/A   Scattered Clouds
4:15 AM 18.1 °F 7.1 °F 6.1 °F 59% 30.09 in 10.0 mi SSE 9.2 mph - N/A   Clear
4:35 AM 18.3 °F 9.1 °F 6.4 °F 60% 30.09 in 10.0 mi SSE 6.9 mph 16.1 mph N/A   Scattered Clouds
4:55 AM 18.5 °F 13.3 °F 6.8 °F 60% 30.08 in 10.0 mi SSE 3.5 mph - N/A   Overcast
5:15 AM 18.3 °F 10.2 °F 6.3 °F 59% 30.07 in 10.0 mi South 5.8 mph - N/A   Overcast
5:35 AM 18.5 °F 13.3 °F 6.4 °F 59% 30.06 in 10.0 mi SSE 3.5 mph - N/A   Overcast
5:55 AM 18.5 °F 11.7 °F 6.4 °F 59% 30.06 in 10.0 mi South 4.6 mph - N/A   Overcast
6:15 AM 18.5 °F 11.7 °F 7.0 °F 61% 30.05 in 10.0 mi SSE 4.6 mph - N/A   Overcast
6:35 AM 18.9 °F 10.8 °F 7.3 °F 61% 30.05 in 10.0 mi South 5.8 mph - N/A   Overcast
6:55 AM 19.0 °F 12.3 °F 7.5 °F 61% 30.05 in 10.0 mi SSE 4.6 mph - N/A   Overcast
7:15 AM 19.2 °F 8.4 °F 7.3 °F 60% 30.06 in 10.0 mi SSE 9.2 mph 16.1 mph N/A   Overcast
7:35 AM 19.4 °F 9.5 °F 7.5 °F 60% 30.05 in 10.0 mi South 8.1 mph - N/A   Overcast
7:55 AM 19.8 °F 13.2 °F 7.9 °F 60% 30.06 in 10.0 mi South 4.6 mph - N/A   Overcast
8:15 AM 19.9 °F 10.1 °F 8.4 °F 61% 30.05 in 10.0 mi SSE 8.1 mph - N/A   Overcast
8:35 AM 20.3 °F 13.8 °F 8.8 °F 61% 30.04 in 10.0 mi SSE 4.6 mph - N/A   Overcast
8:55 AM 19.4 °F 9.5 °F 10.4 °F 68% 30.04 in 2.0 mi South 8.1 mph - N/A Snow Light Snow
9:15 AM 19.0 °F 12.3 °F 13.3 °F 78% 30.04 in 0.8 mi SE 4.6 mph - N/A Snow Light Snow
9:35 AM 19.0 °F 13.9 °F 14.0 °F 81% 30.05 in 0.8 mi SSE 3.5 mph - N/A Snow Light Snow
9:55 AM 19.4 °F 12.8 °F 14.9 °F 83% 30.04 in 0.5 mi ESE 4.6 mph - N/A Snow Light Snow
10:15 AM 20.3 °F 15.4 °F 14.5 °F 78% 30.04 in 4.0 mi South 3.5 mph - N/A Snow Light Snow
10:35 AM 20.5 °F - 15.6 °F 81% 30.05 in 0.8 mi Calm Calm - N/A Snow Light Snow
10:55 AM 20.7 °F 14.2 °F 16.3 °F 83% 30.04 in 0.8 mi South 4.6 mph - N/A Snow Light Snow
11:15 AM 20.8 °F 16.0 °F 16.2 °F 82% 30.02 in 0.8 mi SSE 3.5 mph - N/A Snow Light Snow
11:35 AM 21.0 °F - 16.2 °F 81% 30.03 in 2.0 mi Calm Calm - N/A Snow Light Snow
11:55 AM 21.2 °F - 16.7 °F 83% 30.02 in 0.8 mi Calm Calm - N/A Snow Light Snow
12:15 PM 21.2 °F - 17.2 °F 85% 30.02 in 1.0 mi Calm Calm - N/A Snow Light Snow
12:35 PM 21.2 °F - 17.4 °F 85% 30.01 in 1.2 mi Calm Calm - N/A Snow Light Snow
12:55 PM 21.4 °F - 17.4 °F 85% 30.01 in 2.0 mi Calm Calm - N/A Snow Light Snow
1:15 PM 22.1 °F - 17.6 °F 83% 30.00 in 1.8 mi Calm Calm - N/A Snow Light Snow
1:35 PM 22.8 °F 13.6 °F 17.2 °F 79% 29.99 in 7.0 mi SSE 8.1 mph - N/A Snow Light Snow
1:55 PM 23.0 °F 15.8 °F 17.2 °F 79% 30.00 in 4.0 mi South 5.8 mph - N/A Snow Light Snow
2:15 PM 23.4 °F 15.2 °F 17.6 °F 79% 30.00 in 5.0 mi South 6.9 mph - N/A Snow Light Snow
2:35 PM 23.9 °F 18.0 °F 18.1 °F 79% 30.00 in 4.0 mi South 4.6 mph - N/A Snow Light Snow
2:55 PM 23.7 °F 16.6 °F 18.3 °F 80% 30.00 in 4.0 mi South 5.8 mph - N/A Snow Light Snow
3:15 PM 23.9 °F 19.5 °F 18.5 °F 80% 29.99 in 3.0 mi South 3.5 mph - N/A Snow Light Snow
3:35 PM 24.3 °F 19.9 °F 18.9 °F 80% 29.99 in 4.0 mi South 3.5 mph - N/A Snow Light Snow
4:15 PM 24.3 °F - 20.3 °F 85% 30.00 in 1.5 mi Calm Calm - N/A Snow Light Snow
4:35 PM 24.3 °F - 20.8 °F 87% 30.00 in 2.5 mi Calm Calm - N/A Snow Light Snow
4:55 PM 24.3 °F - 20.7 °F 86% 30.00 in 7.0 mi Calm Calm - N/A   Overcast
5:15 PM 24.4 °F 20.1 °F 20.8 °F 86% 30.00 in 7.0 mi East 3.5 mph - N/A Snow Light Snow
5:35 PM 24.6 °F - 20.8 °F 86% 30.01 in 10.0 mi Calm Calm - N/A   Overcast
5:55 PM 24.8 °F - 20.8 °F 85% 30.01 in 10.0 mi Calm Calm - N/A   Overcast
6:15 PM 24.8 °F - 20.8 °F 85% 30.03 in 7.0 mi Calm Calm - N/A   Overcast
6:35 PM 25.2 °F - 21.4 °F 86% 30.04 in 4.0 mi Calm Calm - N/A Snow Light Snow
6:55 PM 25.3 °F - 22.5 °F 89% 30.04 in 2.0 mi Calm Calm - N/A   Overcast
7:15 PM 24.8 °F - 22.6 °F 91% 30.04 in 2.5 mi Calm Calm - N/A Snow Light Snow
7:35 PM 24.6 °F - 22.8 °F 93% 30.03 in 4.0 mi Calm Calm - N/A Snow Light Snow
7:55 PM 24.6 °F - 22.8 °F 93% 30.04 in 4.0 mi Calm Calm - N/A Snow Light Snow
8:15 PM 24.6 °F - 22.6 °F 92% 30.04 in 7.0 mi Calm Calm - N/A Snow Light Snow
8:35 PM 24.4 °F - 22.6 °F 93% 30.04 in 5.0 mi Calm Calm - N/A Snow Light Snow
8:55 PM 24.6 °F - 22.8 °F 93% 30.05 in 4.0 mi Calm Calm - N/A Snow Light Snow
9:15 PM 24.6 °F - 22.8 °F 93% 30.05 in 4.0 mi Calm Calm - N/A Snow Light Snow
9:35 PM 24.3 °F - 22.6 °F 94% 30.06 in 7.0 mi Calm Calm - N/A   Mostly Cloudy
9:55 PM 24.3 °F - 22.6 °F 94% 30.06 in 7.0 mi Calm Calm - N/A   Overcast
10:15 PM 24.4 °F - 22.6 °F 93% 30.06 in 10.0 mi Calm Calm - N/A   Overcast
10:35 PM 24.8 °F - 22.8 °F 92% 30.06 in 10.0 mi Calm Calm - N/A   Overcast
10:55 PM 25.2 °F - 23.0 °F 91% 30.06 in 10.0 mi Calm Calm - N/A   Overcast
11:15 PM 25.2 °F - 23.0 °F 91% 30.06 in 10.0 mi Calm Calm - N/A   Overcast
11:35 PM 25.3 °F - 23.2 °F 91% 30.07 in 10.0 mi Calm Calm - N/A   Overcast
11:55 PM 25.7 °F - 23.4 °F 91% 30.07 in 7.0 mi Calm Calm - N/A   Overcast